Location: DARK SKY Beskydy - Park tmavé oblohy, www.darkskybeskydy.cz
(49.4926°N, 18.5016°E)
Time: 03:37:49
(UTC+01:00)

Envisat - Pass Details

Date: 03 December 2022
Orbit: 763 x 765 km, 98.2° (Epoch: 05 February)

Event Time Altitude Azimuth Distance (km) Brightness Sun altitude
Rises 03:39:05 0° 18° (NNE) 3,244 6.5 -35.4°
Reaches altitude 10° 03:41:29 10° 24° (NNE) 2,313 5.8 -35.0°
Enters shadow 03:43:33 24° 35° (NE) 1,567 4.9 -34.7°
